Printer-friendly version

IAU Minor Planet Center

Minor Planet Center

MPEC 2000-O17: 2000 NL10

The following Minor Planet Electronic Circular may be linked-to from your own Web pages, but must not otherwise be redistributed electronically.


Read MPEC 2000-O16 Read MPEC 2000-O18


M.P.E.C. 2000-O17                                Issued 2000 July 23, 19:43 UT

     The Minor Planet Electronic Circulars contain information on unusual
         minor planets and routine data on comets.  They are published
   on behalf of Commission 20 of the International Astronomical Union by the
          Minor Planet Center, Smithsonian Astrophysical Observatory,
                          Cambridge, MA 02138, U.S.A.

             Prepared using the Tamkin Foundation Computer Network

             BMARSDEN@CFA.HARVARD.EDU or GWILLIAMS@CFA.HARVARD.EDU
          URL http://cfa-www.harvard.edu/iau/mpc.html  ISSN 1523-6714

                                   2000 NL10

                           Revision to MPEC 2000-N28

Observations:
     K00N10L 4 1952 09 17.14236 20 42 56.01 +52 55 28.1                      261
     K00N10L 4 1952 09 17.14931 20 42 54.89 +52 55 17.2                      261
     K00N10L 4 1992 08 27.15972 19 18 41.97 +48 35 49.4                      261
     K00N10L 4 1992 08 27.21180 19 18 36.31 +48 33 47.9                      261
     K00N10L  C2000 07 22.87431 23 19 43.94 +52 13 00.5          17.7 R      540
     K00N10L  C2000 07 22.87766 23 19 43.51 +52 13 04.2                      540
     K00N10L  C2000 07 22.88090 23 19 43.07 +52 13 07.9                      540

Observer details:
261 Palomar Mountain-DSS.  Measurers DANEOPS (R. Stoss, A. Gnadig).  1.2-m
    Oschin Schmidt.
540 Linz.  Observers E. Meyer, E. Obermair.  0.6-m f/3.0 reflector + CCD.

Orbital elements:
2000 NL10
Id. DANEOPS (1952, 1992 observations)
Epoch 2000 Sept. 13.0 TT = JDT 2451800.5                Williams
M 194.63884              (2000.0)            P               Q
n   1.12747106     Peri.  281.47203     -0.80414669     -0.38424641
a   0.9142517      Node   237.55388     +0.46232803     -0.88387000
e   0.8169998      Incl.   32.50962     -0.37363203     -0.26669930
P   0.87           H   15.8           G   0.15           U   6
Residuals in seconds of arc
520917 261  2.3-  1.1-    000711 557  0.2-  0.3+    000715 658  0.6+  0.3+
520917 261  1.9+  1.0+    000711 557  0.7-  1.2+    000715 658  0.2+  0.4+
920827 261  0.7+  6.7-    000711 557  0.0   1.3+    000715 658  0.5+  0.2+
920827 261  3.7+  3.7-    000711 557  0.2-  0.2+    000717 658  0.3+  0.1-
000710 704  0.5+  0.4+    000712 658  0.6+  0.9+    000717 658  0.2+  0.1+
000710 704  0.2+  1.1+    000712 658  0.4+  0.8+    000717 658  0.0   0.1-
000710 704  0.0   0.6+    000712 658  0.1+  0.8+    000721 704  1.2+  0.2+
000710 704  0.1+  0.5+    000712 704  0.8+  0.8+    000721 704  0.3+  0.8-
000710 163  0.3+  0.6+    000712 704  0.5+  0.4+    000721 704  0.5-  0.1-
000710 163  0.4+  0.5+    000712 704  0.1+  0.7+    000721 704  0.2+  0.7-
000711 118  0.0   1.0+    000712 704  0.4+  1.0+    000722 540  0.0   0.4-
000711 118  0.5+  0.8+    000712 704  0.0   0.9+    000722 540  0.1+  0.6-
000711 118  0.3+  0.9+    000712 704  0.5+  0.1+    000722 540  0.1+  0.6-

Ephemeris:
2000 NL10                a,e,i = 0.91, 0.82, 33                  q = 0.1673
Date    TT    R. A. (2000) Decl.     Delta      r     Elong.  Phase     V
2000 07 15    23 34.23   +49 33.4    1.154    1.563    91.9    40.6    18.7
2000 07 25    23 14.77   +52 52.0    1.102    1.600    98.1    38.9    18.6
2000 08 04    22 45.04   +55 18.0    1.053    1.629   104.0    37.2    18.5
2000 08 14    22 05.90   +56 14.3    1.010    1.648   109.1    35.5    18.4
2000 08 24    21 22.79   +55 08.3    0.979    1.659   113.0    34.1    18.3
2000 09 03    20 43.89   +51 53.1    0.962    1.661   114.8    33.5    18.2
2000 09 13    20 14.91   +46 56.9    0.962    1.654   114.3    33.7    18.2
2000 09 23    19 56.76   +41 05.0    0.978    1.638   111.5    34.8    18.3
2000 10 03    19 47.83   +34 58.7    1.009    1.613   106.8    36.4    18.3
2000 10 13    19 46.00   +29 08.4    1.051    1.579   100.8    38.4    18.4
2000 10 23    19 49.42   +23 50.0    1.099    1.535    94.2    40.3    18.5
2000 11 02    19 56.82   +19 09.8    1.149    1.482    87.3    42.0    18.6
2000 11 12    20 07.25   +15 07.9    1.195    1.417    80.3    43.5    18.6
2000 11 22    20 20.06   +11 40.4    1.233    1.341    73.4    44.9    18.6
2000 12 02    20 34.82   +08 41.4    1.260    1.252    66.5    46.2    18.5

Gareth V. Williams           (C) Copyright 2000 MPC           M.P.E.C. 2000-O17

Read MPEC 2000-O16 Read MPEC 2000-O18


Our Web policy. Index to the CBAT/MPC/ICQ pages.


Valid HTML 4.01!